S-NET C

operational
NORAD ID: 43189 Int'l Des: 2018-014 Owner: TUB Country: D
LEOCIRCULARRETROGRADESSO

Über S-NET C

Beschreibung wird geladen...

Live-Position

3D-Globus wird geladen...

Nächste Überflüge

Höhenverlauf

Altitude vs Time

uPlot chart will show altitude changes over time

Zweizeiliger Elementsatz

1 43189U 18014K 26061.16050832 .00007406 00000-0 39427-3 0 9994
2 43189 97.5481 326.8902 0011246 26.6178 333.5629 15.15469789441099
Epoch: 2. März 2026 • Age: 29 hours

Aktueller Status

Höhe 536.1 km
Geschwindigkeit 7.59 km/s
Subsatellitenpunkt -23.30°S, 84.06°W
Startdatum 1. Feb. 2018
Alter 8 years
Typ other

Technische Details

Klassifizierung Payload
Masse 8.00 kg
Trockenmasse 8.00 kg
Gesamtmasse 8.00 kg
Länge 0.24 m
Durchmesser 0.24 m
Spannweite 0.24 m
Form Box
Hersteller TUB
Bus-Typ TUBiX10
Phasenstatus In Orbit
Besitzer/Staat TUB/D

Große Konstellationen

Loading constellations...